Weather History for Stockton, CA

Change the Weather History Date:

Friday, August 9, 2013

  Actual Average Record
Temperature  
Mean Temperature 71 °F -  
Max Temperature 85 °F 93 °F 108 °F (1978)
Min Temperature 56 °F 60 °F 52 °F (1950)
Degree Days  
Heating Degree Days 0 0  
Month to date heating degree days 0 0  
Since 1 June heating degree days 0 7  
Since 1 July heating degree days 0 0  
Cooling Degree Days 6 11  
Month to date cooling degree days 59 103  
Year to date cooling degree days 909 815  
Since 1 June cooling degree days 728 696  
Growing Degree Days 20 (Base 50)    
Moisture  
Dew Point 53 °F    
Average Humidity 60    
Maximum Humidity 86    
Minimum Humidity 34    
Precipitation  
Precipitation 0.00 in 0.00 in 0.01 in (2008)
Month to date precipitation 0.00 0.00  
Year to date precipitation 2.88 9.03  
Since 1 July precipitation 0.00 T  
Snow  
Snow 0.00 in - - ()
Month to date snowfall 0.0  
Since 1 June snowfall 0.0  
Since 1 July snowfall 0.0  
Snow Depth -    
Sea Level Pressure  
Sea Level Pressure 29.91 in    
Wind  
Wind Speed 8 mph (WNW)    
Max Wind Speed 13 mph    
Max Gust Speed 17 mph    
Visibility 10 miles    
Events      
T = Trace of Precipitation, MM = Missing Value Source: NWS Daily Summary

Daily Weather History Graph

Daily Weather History Graph

Search for Another Location

Airport:

Trip Planner

Search our weather history database for the weather conditions in past years. The results will help you decide how hot, cold, wet, or windy it might be!

Date:

Astronomy

Aug. 09, 2013 Rise Set
Actual Time 6:15 AM PDT 8:04 PM PDT
Civil Twilight 5:46 AM PDT 8:33 PM PDT
Nautical Twilight 5:12 AM PDT 9:07 PM PDT
Astronomical Twilight 4:35 AM PDT 9:44 PM PDT
Moon 9:02 AM PDT (8/9) 9:21 PM PDT (8/9)
Length of Visible Light 14h 46m
Length of Day
13h 49m
Waxing Crescent, 8% of the Moon is Illuminated
Aug 9
Waxing Crescent
Aug 14
First Quarter
Aug 20
Full
Aug 28
Last Quarter
Sep 5
New

Hourly Weather History & Observations

Time (PDT) Temp. Heat Index Dew Point Humidity Pressure Visibility Wind Dir Wind Speed Gust Speed Precip Events Conditions
12:55 AM 60.1 °F - 53.1 °F 78% 29.91 in 10.0 mi WNW 10.4 mph - N/A   Clear
1:55 AM 59.0 °F - 53.1 °F 81% 29.91 in 10.0 mi WNW 9.2 mph - N/A   Clear
2:55 AM 59.0 °F - 52.0 °F 78% 29.90 in 10.0 mi WNW 9.2 mph - N/A   Clear
3:55 AM 57.9 °F - 52.0 °F 81% 29.90 in 10.0 mi WNW 9.2 mph - N/A   Clear
4:55 AM 57.0 °F - 52.0 °F 83% 29.89 in 10.0 mi NW 6.9 mph - N/A   Clear
5:55 AM 57.0 °F - 52.0 °F 83% 29.90 in 10.0 mi WNW 10.4 mph - N/A   Clear
6:55 AM 55.9 °F - 52.0 °F 87% 29.92 in 10.0 mi WNW 6.9 mph - N/A   Clear
7:55 AM 59.0 °F - 53.1 °F 81% 29.93 in 10.0 mi Calm Calm - N/A   Clear
8:55 AM 62.1 °F - 53.1 °F 72% 29.93 in 10.0 mi WNW 5.8 mph - N/A   Clear
9:55 AM 66.9 °F - 53.1 °F 61% 29.93 in 10.0 mi Variable 5.8 mph - N/A   Clear
10:55 AM 70.0 °F - 52.0 °F 53% 29.93 in 10.0 mi Variable 4.6 mph - N/A   Clear
11:55 AM 75.0 °F - 52.0 °F 44% 29.92 in 10.0 mi West 8.1 mph - N/A   Clear
12:55 PM 77.0 °F - 51.1 °F 40% 29.91 in 10.0 mi WNW 6.9 mph - N/A   Clear
1:55 PM 80.1 °F 79.9 °F 53.1 °F 39% 29.90 in 10.0 mi WNW 9.2 mph - N/A   Clear
2:55 PM 81.0 °F - 52.0 °F 36% 29.89 in 10.0 mi Variable 5.8 mph 16.1 mph N/A   Clear
3:55 PM 84.0 °F 82.6 °F 54.0 °F 35% 29.88 in 10.0 mi WNW 9.2 mph - N/A   Clear
4:55 PM 84.0 °F 82.6 °F 54.0 °F 35% 29.87 in 10.0 mi West 8.1 mph - N/A   Clear
5:55 PM 82.9 °F 81.9 °F 54.0 °F 37% 29.87 in 10.0 mi WNW 13.8 mph - N/A   Clear
6:55 PM 81.0 °F 80.5 °F 54.0 °F 39% 29.88 in 10.0 mi West 13.8 mph - N/A   Clear
7:55 PM 75.0 °F - 54.0 °F 48% 29.90 in 10.0 mi WNW 11.5 mph - N/A   Clear
8:55 PM 72.0 °F - 54.0 °F 53% 29.91 in 10.0 mi NW 8.1 mph - N/A   Clear
9:55 PM 68.0 °F - 54.0 °F 61% 29.93 in 10.0 mi NW 5.8 mph - N/A   Clear
10:55 PM 66.0 °F - 54.0 °F 65% 29.94 in 10.0 mi West 9.2 mph - N/A   Clear
11:55 PM 63.0 °F - 53.1 °F 70% 29.95 in 10.0 mi NW 4.6 mph - N/A   Clear